sat.trackr.live / text

‹ back to catalog

STARLINK-3740

NORAD 52265 · 2022-041E

PAYLOAD ACTIVE UNKNOWN

§ Identity

Operator
Country
US
Launch date
2022-04-21
Launch site
AFETR
Launch vehicle
Mass (kg)
RCS (m²)

Purposes: comms

External: N2YO · Heavens-Above · Gunter

§ Orbital elements

Epoch: 2026-09-19T17:29:31.268832Z

Period
93.85 min
Inclination
53.1600°
Eccentricity
0.0001146
Mean motion
15.34394639 rev/d
Perigee alt
461.9 km
Apogee alt
463.5 km
Semi-major
6,840.9 km
B*
7.9358e-5
RAAN
303.4361°
Arg perigee
57.7797°
Mean anomaly
302.3317°
Rev number
24,385

§ Raw data

STARLINK-37401 52265U 22041E   26262.72883413  .00002305  00000+0  79358-4 0  99982 52265  53.1600 303.4361 0001146  57.7797 302.3317 15.34394639243859

JSON: /api/v1/satellites/52265 · /tle

For live sub-satellite position, see the globe view (requires WebGL).

§ Visibility from observer

Set your observer location to see the next 7 days of passes ≥ 10°. The values pass through the URL so the page stays shareable.

No JS? Fill the form by hand. The geolocation button needs JavaScript.